Ellensburg, WA
on Wednesday, November 7, 2012

Wednesday
Previous Day Next Day
Daily Summary
 ActualAverage (KYKM)Record (KYKM)
Temperature
Mean Temperature °F 41°F  
Max Temperature 53°F 52°F 66°F (2006)
Min Temperature 30°F 29°F 15°F (1959)
Degree Days
Heating Degree Days 24 24  
Month to date heating degree days 163  
Since 1 July heating degree days 867  
Cooling Degree Days 0 0  
Month to date cooling degree days 0  
Year to date cooling degree days 472  
Moisture
Dew Point 30°F   
Average Humidity 58    
Maximum Humidity 76    
Minimum Humidity 41    
Precipitation
Precipitation 0.00 in 0.03 in 0.61 in (1997)
Month to date precipitation 0.20  
Year to date precipitation 5.87  
Snow
Snow 0.00 in 0.10 in 1.60 in (1995)
Month to date snowfall 0.2  
Year to date snowfall 8.9  
Since 1 July snowfall 0.3  
Snow Depth in   
Wind
Wind Speed 15 mph   
Max Wind Speed 22 mph   
Max Gust Speed 28 mph   
Visibility 10 miles   
Events     

Key: T is trace of precipitation, MM is missing value
Source: NWS Daily Summary
Time(PST)TemperatureDew PointHumidity Pressure Visibility Wind DirectionWind SpeedGust SpeedPrecipitationEvents Conditions
12:53 AM 48.9°F 33.1°F 54% 29.95 in 10.0 miles NW 20.7 mph - N/A   Clear
1:53 AM 46.9°F 35.1°F 63% 29.96 in 10.0 miles NW 19.6 mph 25.3 mph N/A   Clear
2:53 AM 46.9°F 34.0°F 61% 29.98 in 10.0 miles NW 16.1 mph 24.2 mph N/A   Partly Cloudy
3:53 AM 46.0°F 34.0°F 63% 29.99 in 10.0 miles NW 16.1 mph 20.7 mph N/A   Mostly Cloudy
4:53 AM 46.0°F 34.0°F 63% 30.01 in 10.0 miles NW 15.0 mph 21.9 mph N/A   Overcast
5:53 AM 45.0°F 30.9°F 58% 30.03 in 10.0 miles WNW 13.8 mph - N/A   Partly Cloudy
6:53 AM 45.0°F 28.9°F 53% 30.04 in 10.0 miles WNW 17.3 mph - N/A   Clear
7:53 AM 46.0°F 30.0°F 54% 30.06 in 10.0 miles NW 10.4 mph - N/A   Clear
8:53 AM 48.0°F 30.9°F 52% 30.06 in 10.0 miles NW 18.4 mph 25.3 mph N/A   Clear
9:53 AM 50.0°F 32.0°F 50% 30.06 in 10.0 miles NW 17.3 mph 26.5 mph N/A   Clear
10:53 AM 51.1°F 33.1°F 50% 30.06 in 10.0 miles NW 21.9 mph 27.6 mph N/A   Clear
11:53 AM 52.0°F 30.0°F 43% 30.05 in 10.0 miles NW 18.4 mph - N/A   Clear
12:53 PM 53.1°F 30.0°F 41% 30.04 in 10.0 miles NW 19.6 mph 26.5 mph N/A   Clear
1:53 PM 52.0°F 28.9°F 41% 30.05 in 10.0 miles NW 19.6 mph 25.3 mph N/A   Clear
2:53 PM 51.1°F 28.0°F 41% 30.05 in 10.0 miles NW 21.9 mph 27.6 mph N/A   Clear
3:53 PM 46.9°F 30.0°F 52% 30.05 in 10.0 miles NW 12.7 mph - N/A   Clear
4:53 PM 41.0°F 28.0°F 60% 30.05 in 10.0 miles North 3.5 mph - N/A   Clear
5:53 PM 41.0°F 30.0°F 65% 30.04 in 10.0 miles NNW 6.9 mph - N/A   Mostly Cloudy
6:53 PM 37.9°F 30.0°F 73% 30.03 in 10.0 miles NW 6.9 mph - N/A   Mostly Cloudy
7:53 PM 39.0°F 30.0°F 70% 30.01 in 10.0 miles North 9.2 mph - N/A   Clear
8:53 PM 33.1°F 25.0°F 72% 30.01 in 10.0 miles Calm Calm - N/A   Clear
9:53 PM 33.1°F 24.1°F 70% 29.99 in 10.0 miles NE 3.5 mph - N/A   Clear
10:53 PM 30.9°F 24.1°F 76% 29.97 in 10.0 miles North 3.5 mph - N/A   Mostly Cloudy
11:53 PM 32.0°F 24.1°F 73% 29.95 in 10.0 miles Calm Calm - N/A   Mostly Cloudy
Moon Phase
Nov. 07 Nov. 13 Nov. 20 Nov. 28 Dec. 06
Sunrise:06:54 AM (PST) Moon Rise:No Moon Rise/
Sunset:04:36 PM (PST) Moon Set:01:11 PM (PST)11/7

Copyright © 2014 The Weather Underground, Inc.